| time (UTC) | temp F | wind direction | speed MPH | gust MPH | rain 1hr in | rain 24hr in | rain mn in | humidity % | barometer mb |
| 20260903090637 | 59 | 323 | 2.0 | 0.0 | 0.00 | 0.00 | 0.00 | 64 | 962.8 |
| 20260903090138 | 59 | 325 | 4.0 | 0.0 | 0.00 | 0.00 | 0.00 | 65 | 963.1 |
| 20260903085638 | 59 | 305 | 4.0 | 0.0 | 0.00 | 0.00 | 0.00 | 66 | 962.8 |
| 20260903085141 | 58 | 306 | 2.0 | 0.0 | 0.00 | 0.00 | 0.00 | 66 | 963.1 |
| 20260903084638 | 59 | 312 | 1.0 | 0.0 | 0.00 | 0.00 | 0.00 | 67 | 963.1 |
| 20260903084140 | 59 | 329 | 1.0 | 0.0 | 0.00 | 0.00 | 0.00 | 67 | 963.1 |
| 20260903083637 | 59 | 329 | 2.0 | 0.0 | 0.00 | 0.00 | 0.00 | 65 | 963.4 |
| 20260903083140 | 59 | 318 | 2.0 | 0.0 | 0.00 | 0.00 | 0.00 | 65 | 963.1 |
| 20260903082638 | 59 | 306 | 2.0 | 0.0 | 0.00 | 0.00 | 0.00 | 67 | 963.1 |
| 20260903082141 | 59 | 327 | 2.0 | 0.0 | 0.00 | 0.00 | 0.00 | 65 | 963.4 |
| 20260903081637 | 60 | 307 | 2.0 | 0.0 | 0.00 | 0.00 | 0.00 | 65 | 963.1 |
| 20260903081138 | 60 | 288 | 2.0 | 0.0 | 0.00 | 0.00 | 0.00 | 64 | 963.4 |
| 20260903080637 | 60 | 297 | 3.0 | 0.0 | 0.00 | 0.00 | 0.00 | 61 | 963.1 |
| 20260903080138 | 60 | 296 | 2.0 | 0.0 | 0.00 | 0.00 | 0.00 | 60 | 963.4 |
| 20260903075638 | 61 | 312 | 2.0 | 0.0 | 0.00 | 0.00 | 0.00 | 62 | 963.1 |
| 20260903075141 | 61 | 166 | 0.0 | 0.0 | 0.00 | 0.00 | 0.00 | 62 | 963.1 |
| 20260903074640 | 62 | 166 | 1.0 | 0.0 | 0.00 | 0.00 | 0.00 | 61 | 963.1 |
| 20260903074138 | 63 | 319 | 2.0 | 0.0 | 0.00 | 0.00 | 0.00 | 59 | 963.1 |
| 20260903073635 | 63 | 323 | 2.0 | 0.0 | 0.00 | 0.00 | 0.00 | 58 | 963.1 |
| 20260903073139 | 64 | 115 | 4.0 | 0.0 | 0.00 | 0.00 | 0.00 | 59 | 963.4 |
| 20260903072643 | 65 | 262 | 4.0 | 0.0 | 0.00 | 0.00 | 0.00 | 55 | 963.1 |
| 20260903072141 | 65 | 254 | 4.0 | 0.0 | 0.00 | 0.00 | 0.00 | 56 | 963.4 |
| 20260903071645 | 65 | 222 | 3.0 | 0.0 | 0.00 | 0.00 | 0.00 | 58 | 963.4 |
| 20260903071142 | 65 | 262 | 4.0 | 0.0 | 0.00 | 0.00 | 0.00 | 56 | 963.4 |
| 20260903070643 | 65 | 258 | 4.0 | 0.0 | 0.00 | 0.00 | 0.00 | 57 | 963.4 |
| 20260903070145 | 65 | 238 | 4.0 | 0.0 | 0.00 | 0.00 | 0.00 | 57 | 963.4 |
| 20260903065641 | 65 | 252 | 3.0 | 0.0 | 0.00 | 0.00 | 0.00 | 56 | 963.4 |
| 20260903065143 | 65 | 308 | 2.0 | 0.0 | 0.00 | 0.00 | 0.00 | 54 | 963.4 |
| 20260903064639 | 65 | 288 | 2.0 | 0.0 | 0.00 | 0.00 | 0.00 | 54 | 963.4 |
| 20260903064139 | 65 | 317 | 3.0 | 0.0 | 0.00 | 0.00 | 0.00 | 52 | 963.4 |
| 20260903063640 | 65 | 248 | 4.0 | 0.0 | 0.00 | 0.00 | 0.00 | 52 | 963.4 |
| 20260903063138 | 65 | 178 | 5.0 | 0.0 | 0.00 | 0.00 | 0.00 | 53 | 963.4 |
| 20260903062638 | 64 | 180 | 5.0 | 0.0 | 0.00 | 0.00 | 0.00 | 54 | 963.4 |
| 20260903062238 | 64 | 213 | 3.0 | 0.0 | 0.00 | 0.00 | 0.00 | 57 | 963.4 |
| 20260903061639 | 65 | 233 | 3.0 | 0.0 | 0.00 | 0.00 | 0.00 | 55 | 963.4 |
| 20260903061137 | 65 | 163 | 2.0 | 0.0 | 0.00 | 0.00 | 0.00 | 56 | 963.4 |
| 20260903060638 | 65 | 283 | 4.0 | 0.0 | 0.00 | 0.00 | 0.00 | 56 | 963.4 |
| 20260903060140 | 65 | 148 | 4.0 | 0.0 | 0.00 | 0.00 | 0.00 | 57 | 963.4 |
| 20260903055636 | 65 | 235 | 5.0 | 0.0 | 0.00 | 0.00 | 0.00 | 57 | 963.4 |
| 20260903055137 | 65 | 296 | 6.0 | 0.0 | 0.00 | 0.00 | 0.00 | 57 | 963.4 |
| 20260903054636 | 65 | 303 | 5.0 | 0.0 | 0.00 | 0.00 | 0.00 | 57 | 963.4 |
| 20260903054135 | 65 | 232 | 3.0 | 0.0 | 0.00 | 0.00 | 0.00 | 55 | 963.4 |
| 20260903053635 | 65 | 200 | 3.0 | 0.0 | 0.00 | 0.00 | 0.00 | 54 | 963.4 |
| 20260903053134 | 66 | 162 | 3.0 | 0.0 | 0.00 | 0.00 | 0.00 | 51 | 963.4 |
| 20260903052647 | 66 | 155 | 4.0 | 0.0 | 0.00 | 0.00 | 0.00 | 49 | 963.4 |
| 20260903052136 | 67 | 168 | 2.0 | 0.0 | 0.00 | 0.00 | 0.00 | 47 | 963.4 |
| 20260903051634 | 67 | 121 | 3.0 | 0.0 | 0.00 | 0.00 | 0.00 | 46 | 963.4 |
| 20260903051134 | 67 | 204 | 3.0 | 0.0 | 0.00 | 0.00 | 0.00 | 47 | 963.4 |
| 20260903050633 | 68 | 144 | 4.0 | 0.0 | 0.00 | 0.00 | 0.00 | 50 | 963.4 |
| 20260903050134 | 67 | 108 | 5.0 | 0.0 | 0.00 | 0.00 | 0.00 | 50 | 963.4 |
| 20260903045632 | 68 | 288 | 3.0 | 0.0 | 0.00 | 0.00 | 0.00 | 50 | 963.4 |
| 20260903045138 | 68 | 343 | 3.0 | 0.0 | 0.00 | 0.00 | 0.00 | 49 | 963.4 |
| 20260903044641 | 69 | 327 | 7.0 | 0.0 | 0.00 | 0.00 | 0.00 | 48 | 963.4 |
| 20260903044142 | 69 | 138 | 10.0 | 0.0 | 0.00 | 0.00 | 0.00 | 48 | 963.4 |
| 20260903043641 | 69 | 121 | 10.0 | 0.0 | 0.00 | 0.00 | 0.00 | 50 | 963.1 |
| 20260903043131 | 69 | 147 | 6.0 | 0.0 | 0.00 | 0.00 | 0.00 | 53 | 963.1 |
| 20260903042637 | 69 | 41 | 6.0 | 0.0 | 0.00 | 0.00 | 0.00 | 54 | 963.1 |
| 20260903042136 | 69 | 98 | 6.0 | 0.0 | 0.00 | 0.00 | 0.00 | 54 | 963.1 |
| 20260903041738 | 69 | 10 | 6.0 | 0.0 | 0.00 | 0.00 | 0.00 | 54 | 963.1 |
| 20260903041430 | 69 | 156 | 4.0 | 0.0 | 0.00 | 0.00 | 0.00 | 53 | 963.1 |
| 20260903040641 | 69 | 24 | 4.0 | 0.0 | 0.00 | 0.00 | 0.00 | 51 | 963.1 |
| 20260903040140 | 70 | 307 | 7.0 | 0.0 | 0.00 | 0.00 | 0.00 | 50 | 963.1 |
| 20260903035641 | 70 | 18 | 7.0 | 0.0 | 0.00 | 0.00 | 0.00 | 50 | 962.8 |
| 20260903035143 | 70 | 131 | 7.0 | 0.0 | 0.00 | 0.00 | 0.00 | 50 | 962.8 |
| 20260903034636 | 70 | 339 | 3.0 | 0.0 | 0.00 | 0.00 | 0.00 | 48 | 962.8 |
| 20260903034138 | 70 | 152 | 5.0 | 0.0 | 0.00 | 0.00 | 0.00 | 48 | 962.8 |
| 20260903033639 | 70 | 144 | 7.0 | 0.0 | 0.00 | 0.00 | 0.00 | 48 | 962.4 |
| 20260903033138 | 71 | 43 | 7.0 | 0.0 | 0.00 | 0.00 | 0.00 | 47 | 962.4 |
| 20260903032639 | 71 | 126 | 7.0 | 0.0 | 0.00 | 0.00 | 0.00 | 46 | 962.4 |
| 20260903032136 | 72 | 115 | 6.0 | 0.0 | 0.00 | 0.00 | 0.00 | 44 | 962.4 |
| 20260903031641 | 73 | 126 | 8.0 | 0.0 | 0.00 | 0.00 | 0.00 | 42 | 962.4 |
| 20260903031138 | 73 | 180 | 8.0 | 0.0 | 0.00 | 0.00 | 0.00 | 40 | 962.4 |
| 20260903030626 | 74 | 162 | 9.0 | 0.0 | 0.00 | 0.00 | 0.00 | 38 | 962.1 |
| 20260903030135 | 74 | 109 | 9.0 | 0.0 | 0.00 | 0.00 | 0.00 | 36 | 962.1 |
| 20260903025638 | 74 | 121 | 9.0 | 0.0 | 0.00 | 0.00 | 0.00 | 35 | 962.1 |
| 20260903025135 | 74 | 93 | 8.0 | 0.0 | 0.00 | 0.00 | 0.00 | 33 | 962.1 |
| 20260903024639 | 74 | 179 | 5.0 | 0.0 | 0.00 | 0.00 | 0.00 | 33 | 962.1 |
| 20260903024124 | 74 | 113 | 4.0 | 0.0 | 0.00 | 0.00 | 0.00 | 32 | 962.1 |
| 20260902143818 | 66 | 144 | 1.0 | 0.0 | 0.00 | 0.00 | 0.00 | 48 | 964.4 |
| 20260902143313 | 65 | 117 | 2.0 | 0.0 | 0.00 | 0.00 | 0.00 | 49 | 964.4 |
| 20260902142739 | 65 | 108 | 2.0 | 0.0 | 0.00 | 0.00 | 0.00 | 48 | 964.4 |
| 20260902142239 | 64 | 328 | 0.0 | 0.0 | 0.00 | 0.00 | 0.00 | 50 | 964.1 |
| 20260902141741 | 62 | 328 | 0.0 | 0.0 | 0.00 | 0.00 | 0.00 | 55 | 964.1 |
| 20260902141239 | 61 | 329 | 0.0 | 0.0 | 0.00 | 0.00 | 0.00 | 57 | 964.1 |
| 20260902140751 | 59 | 328 | 0.0 | 0.0 | 0.00 | 0.00 | 0.00 | 60 | 963.8 |
| 20260902140238 | 57 | 328 | 0.0 | 0.0 | 0.00 | 0.00 | 0.00 | 64 | 963.8 |
| 20260902135740 | 54 | 323 | 0.0 | 0.0 | 0.00 | 0.00 | 0.00 | 67 | 963.8 |
| 20260902135238 | 53 | 323 | 0.0 | 0.0 | 0.00 | 0.00 | 0.00 | 69 | 963.8 |
| 20260902134736 | 52 | 323 | 0.0 | 0.0 | 0.00 | 0.00 | 0.00 | 71 | 963.8 |
| 20260902134240 | 52 | 323 | 0.0 | 0.0 | 0.00 | 0.00 | 0.00 | 70 | 963.8 |
| 20260902133740 | 52 | 312 | 0.0 | 0.0 | 0.00 | 0.00 | 0.00 | 71 | 963.4 |
| 20260902133241 | 52 | 312 | 0.0 | 0.0 | 0.00 | 0.00 | 0.00 | 71 | 963.4 |
| 20260902132743 | 52 | 312 | 0.0 | 0.0 | 0.00 | 0.00 | 0.00 | 69 | 963.4 |
| 20260902132238 | 53 | 312 | 0.0 | 0.0 | 0.00 | 0.00 | 0.00 | 68 | 963.4 |
| 20260902131742 | 53 | 312 | 3.0 | 0.0 | 0.00 | 0.00 | 0.00 | 67 | 963.8 |
| 20260902131238 | 53 | 312 | 3.0 | 0.0 | 0.00 | 0.00 | 0.00 | 67 | 963.8 |
| 20260902130741 | 53 | 325 | 0.0 | 0.0 | 0.00 | 0.00 | 0.00 | 72 | 963.8 |
| 20260902130238 | 53 | 325 | 1.0 | 0.0 | 0.00 | 0.00 | 0.00 | 75 | 963.8 |
| 20260902125739 | 52 | 318 | 1.0 | 0.0 | 0.00 | 0.00 | 0.00 | 74 | 963.8 |
| 20260902125237 | 52 | 310 | 0.0 | 0.0 | 0.00 | 0.00 | 0.00 | 74 | 963.8 |
| 20260902124743 | 52 | 310 | 0.0 | 0.0 | 0.00 | 0.00 | 0.00 | 74 | 963.8 |
| 20260902124240 | 53 | 310 | 0.0 | 0.0 | 0.00 | 0.00 | 0.00 | 74 | 963.8 |
| 20260902123748 | 53 | 310 | 0.0 | 0.0 | 0.00 | 0.00 | 0.00 | 73 | 963.8 |
| 20260902123237 | 53 | 310 | 0.0 | 0.0 | 0.00 | 0.00 | 0.00 | 73 | 963.8 |
| 20260902122740 | 53 | 310 | 0.0 | 0.0 | 0.00 | 0.00 | 0.00 | 73 | 963.8 |
| 20260902122242 | 54 | 310 | 0.0 | 0.0 | 0.00 | 0.00 | 0.00 | 71 | 963.8 |
| 20260902121737 | 54 | 310 | 0.0 | 0.0 | 0.00 | 0.00 | 0.00 | 74 | 964.1 |
| 20260902121236 | 54 | 310 | 0.0 | 0.0 | 0.00 | 0.00 | 0.00 | 73 | 964.1 |
| 20260902120732 | 54 | 310 | 0.0 | 0.0 | 0.00 | 0.00 | 0.00 | 72 | 964.1 |
| 20260902120252 | 55 | 310 | 0.0 | 0.0 | 0.00 | 0.00 | 0.00 | 72 | 964.1 |
| 20260902115739 | 55 | 310 | 0.0 | 0.0 | 0.00 | 0.00 | 0.00 | 71 | 964.1 |
| 20260902115257 | 55 | 310 | 0.0 | 0.0 | 0.00 | 0.00 | 0.00 | 72 | 964.1 |
| 20260902114743 | 55 | 312 | 1.0 | 0.0 | 0.00 | 0.00 | 0.00 | 72 | 964.1 |
| 20260902114237 | 55 | 312 | 1.0 | 0.0 | 0.00 | 0.00 | 0.00 | 72 | 964.1 |
| 20260902113744 | 55 | 321 | 1.0 | 0.0 | 0.00 | 0.00 | 0.00 | 71 | 964.1 |
| 20260902113240 | 56 | 321 | 0.0 | 0.0 | 0.00 | 0.00 | 0.00 | 68 | 964.1 |
| 20260902112740 | 56 | 321 | 0.0 | 0.0 | 0.00 | 0.00 | 0.00 | 63 | 964.1 |
| 20260902112255 | 56 | 321 | 2.0 | 0.0 | 0.00 | 0.00 | 0.00 | 63 | 964.1 |
| 20260902111739 | 56 | 320 | 2.0 | 0.0 | 0.00 | 0.00 | 0.00 | 67 | 964.1 |
| 20260902111241 | 56 | 328 | 1.0 | 0.0 | 0.00 | 0.00 | 0.00 | 65 | 964.1 |
| 20260902110737 | 56 | 326 | 2.0 | 0.0 | 0.00 | 0.00 | 0.00 | 64 | 964.1 |
| 20260902110240 | 56 | 317 | 0.0 | 0.0 | 0.00 | 0.00 | 0.00 | 63 | 964.1 |
| 20260902105757 | 57 | 301 | 0.0 | 0.0 | 0.00 | 0.00 | 0.00 | 62 | 964.1 |
| 20260902105245 | 58 | 301 | 0.0 | 0.0 | 0.00 | 0.00 | 0.00 | 60 | 964.1 |
| 20260902104736 | 59 | 307 | 0.0 | 0.0 | 0.00 | 0.00 | 0.00 | 59 | 964.1 |
| 20260902104242 | 60 | 288 | 0.0 | 0.0 | 0.00 | 0.00 | 0.00 | 61 | 964.1 |
| 20260902103737 | 60 | 341 | 3.0 | 0.0 | 0.00 | 0.00 | 0.00 | 59 | 964.1 |
| 20260902103239 | 60 | 201 | 3.0 | 0.0 | 0.00 | 0.00 | 0.00 | 61 | 964.1 |
| 20260902102741 | 59 | 196 | 3.0 | 0.0 | 0.00 | 0.00 | 0.00 | 70 | 964.1 |
| 20260902102241 | 59 | 237 | 3.0 | 0.0 | 0.00 | 0.00 | 0.00 | 71 | 964.1 |
| 20260902101737 | 58 | 209 | 1.0 | 0.0 | 0.00 | 0.00 | 0.00 | 63 | 964.1 |
| 20260902101304 | 58 | 239 | 1.0 | 0.0 | 0.00 | 0.00 | 0.00 | 66 | 964.1 |
| 20260902100737 | 58 | 215 | 2.0 | 0.0 | 0.00 | 0.00 | 0.00 | 65 | 964.1 |
| 20260902100238 | 58 | 218 | 3.0 | 0.0 | 0.00 | 0.00 | 0.00 | 65 | 964.1 |
| 20260902095737 | 57 | 221 | 2.0 | 0.0 | 0.00 | 0.00 | 0.00 | 63 | 964.4 |
| 20260902095236 | 57 | 220 | 0.0 | 0.0 | 0.00 | 0.00 | 0.00 | 60 | 964.1 |
| 20260902094737 | 57 | 220 | 0.0 | 0.0 | 0.00 | 0.00 | 0.00 | 59 | 964.4 |
| 20260902094303 | 57 | 220 | 0.0 | 0.0 | 0.00 | 0.00 | 0.00 | 58 | 964.4 |
| 20260902093801 | 58 | 273 | 0.0 | 0.0 | 0.00 | 0.00 | 0.00 | 59 | 964.4 |
| 20260902093300 | 58 | 326 | 0.0 | 0.0 | 0.00 | 0.00 | 0.00 | 57 | 964.4 |
| 20260902092739 | 59 | 282 | 0.0 | 0.0 | 0.00 | 0.00 | 0.00 | 57 | 964.4 |
| 20260902092258 | 59 | 281 | 0.0 | 0.0 | 0.00 | 0.00 | 0.00 | 56 | 964.4 |
| 20260902091759 | 60 | 282 | 0.0 | 0.0 | 0.00 | 0.00 | 0.00 | 56 | 964.4 |
| 20260902091258 | 60 | 282 | 0.0 | 0.0 | 0.00 | 0.00 | 0.00 | 57 | 964.4 |
| 20260902090759 | 60 | 234 | 0.0 | 0.0 | 0.00 | 0.00 | 0.00 | 57 | 964.4 |